Location: Mahannah Oil Field
(37.4664°N, 96.6003°W)
Time: 11:11:23
(UTC+00:00)

Vanguard 2 - Pass Details

Date: 30 January 2021
Orbit: 552 x 2938 km, 32.9° (Epoch: 08 March)

Event Time Altitude Azimuth Distance (km) Brightness Sun altitude
Rises 00:11:13 0° 267° (W) 2,725 12.3 -5.2°
Reaches altitude 10° 00:13:29 10° 258° (WSW) 1,820 11.3 -5.6°
Maximum altitude 00:17:07 36° 190° (S) 943 8.3 -6.3°
Drops below altitude 10° 00:21:27 10° 124° (ESE) 2,173 9.5 -7.1°
Sets 00:24:24 0° 116° (ESE) 3,353 10.4 -7.7°
Enters shadow 00:24:31 - 116° (ESE) 3,399 10.4 -7.7°
